ATLAS 5 CENTAUR DEB, 44015

Orbit data source: Space-Track

ATLAS 5 CENTAUR DEB, 44015 is space debris in HEO originally from a launch on Wed, 17 Sep 2014 UTC launched from the Air Force Eastern Test Range (AFETR). Debris objects in space refer to the collection of defunct objects orbiting the Earth. Examples of debris include non-operational satellites, rocket bodies, and fragments generated from explosions, collisions, or faulty payload assembly.

Loading next visibility...
ATLAS 5 CENTAUR DEB details
Identifier
44015, 2014-055BW
Orbit
HEO
Last TLE update1 day ago
Origin
Flag of USULA (US)
ManufacturerUnknown
MissionSpacecraft
Bus & MotorUnknown
MassUnknown
Launch date (UTC)
2014-09-17 (10 years ago)
Launch vehicleUnknown
Launch site
Air Force Eastern Test Range (AFETR)
Object type
Payload
Rocket body
Debris
Shape & HBRUnknown
Radar Cross SectionRCS unknown

Expand to show TLE details & history

TLE from 1 day ago
0 ATLAS 5 CENTAUR DEB
1 44015U 14055BW  24338.41601137 -.00000026  00000-0  00000-0 0  9991
2 44015  20.4987 148.6017 5109354 156.9518 238.1547  1.95146341 43613
Epoch: 2024-12-03T09:59Z
Definitive object data (Epoch: 2024-12-03T09:59:03.382Z)
Latitude-0.00001°
Longitude-73.87369°
Altitude31,312.207 km
Speed2.533 km/s
True Right ascension09h 54m 27s
True Declination0° 00' 00"
Sunlit
Object was in daylight at TLE epoch
Visualization TLE readout
Latitude-1.49247°
Longitude-77.99405°
Altitude32,354.707 km
Speed2.418 km/s
Apparent Right ascension09h 50m 32s
Apparent Declination-8° 26' 07"
Sunlit
Object is in daylight
Visualization observer readout
Local Sidereal Time08:07:58
Azimuth147.987° SSE
Elevation36.145°
Doppler factor1
Orbital elements
Apogee altitude34,495.315 km
Perigee altitude6,851.918 km
Semi-major axis27,051.753 km
Eccentricity0.5109354
Inclination20.4987°
RAAN148.6017°
Arg. of periapsis156.9518°
True anomaly203.10465°
Mean anomaly238.1547°
Eccentric anomaly219.52429°
Mean motion0.48781 °/min
BSTARUnknown
Orbital period737.99 mins
Loading maneuver chart data...

ATLAS 5 CENTAUR DEB Visibility forecast

Observer location: undefined°, undefined

Span
Click to sort rows by Start time (UTC) header in descending order
Start Az.
Max El. time (UTC)
Max El. Az.
Max El.
End time (UTC)
End Az.
229 mins2024-12-04 10:13:33.222Z147.998° SSE2024-12-04 12:29:33.222Z138.797° SSE35.413°2024-12-04 14:02:33.222Z90.293° ESE
396 mins2024-12-05 03:37:33.222Z209.435° SW2024-12-05 10:13:33.222Z158.984° S30.914°2024-12-05 10:13:33.222Z158.984° S
|